TimeCST,TemperatureF,Dew PointF,Humidity,Sea Level PressureIn,VisibilityMPH,Wind Direction,Wind SpeedMPH,Gust SpeedMPH,PrecipitationIn,Events,Conditions,WindDirDegrees,DateUTC
12:06 AM,28.4,26.6,93,30.03,2.0,NNE,12.7,-,0.00,Snow,Light Snow,20,2013-02-25 06:06:00
12:53 AM,28.0,26.1,92,30.11,1.8,North,9.2,-,0.00,Snow,Light Snow,10,2013-02-25 06:53:00
1:04 AM,28.4,26.6,93,30.03,1.8,North,10.4,-,0.00,Snow,Light Snow,360,2013-02-25 07:04:00
1:19 AM,28.4,26.6,93,30.04,1.2,North,8.1,-,0.00,Snow,Light Snow,10,2013-02-25 07:19:00
1:36 AM,28.4,26.6,93,30.04,1.2,North,9.2,-,0.00,Snow,Light Snow,10,2013-02-25 07:36:00
1:53 AM,27.0,26.1,96,30.08,1.0,North,10.4,-,0.00,Snow,Light Snow,10,2013-02-25 07:53:00
2:53 AM,27.0,26.1,96,30.07,1.8,North,11.5,-,0.00,,Overcast,10,2013-02-25 08:53:00
2:56 AM,26.6,26.6,100,30.03,2.0,North,8.1,-,N/A,,Overcast,360,2013-02-25 08:56:00
3:37 AM,26.6,26.6,100,30.02,2.5,North,9.2,-,N/A,,Overcast,10,2013-02-25 09:37:00
3:53 AM,27.0,25.0,92,30.08,3.0,North,10.4,-,N/A,,Overcast,360,2013-02-25 09:53:00
4:53 AM,24.1,21.9,91,30.08,4.0,North,8.1,-,N/A,,Overcast,360,2013-02-25 10:53:00
5:53 AM,24.8,21.2,86,30.02,4.0,North,9.2,-,N/A,,Overcast,350,2013-02-25 11:53:00
6:36 AM,23.0,21.2,93,30.01,2.5,North,11.5,-,N/A,,Overcast,350,2013-02-25 12:36:00
6:40 AM,24.8,23.0,93,30.02,1.2,North,12.7,-,N/A,,Overcast,350,2013-02-25 12:40:00
6:49 AM,24.8,24.8,100,30.01,0.5,North,13.8,-,N/A,Fog,Light Freezing Fog,350,2013-02-25 12:49:00
6:53 AM,25.0,24.1,96,30.09,0.5,North,13.8,-,N/A,Fog,Light Freezing Fog,350,2013-02-25 12:53:00
7:53 AM,25.0,25.0,100,30.10,0.2,North,11.5,-,N/A,Fog,Light Freezing Fog,360,2013-02-25 13:53:00
8:53 AM,27.0,26.1,96,30.10,0.2,NNE,11.5,-,N/A,Fog,Light Freezing Fog,20,2013-02-25 14:53:00
9:40 AM,28.4,26.6,93,30.04,1.2,North,11.5,-,N/A,,Overcast,10,2013-02-25 15:40:00
9:53 AM,28.0,28.0,100,30.11,2.0,NNE,9.2,-,N/A,,Overcast,20,2013-02-25 15:53:00
10:25 AM,28.4,26.6,93,30.05,3.0,NNE,8.1,-,N/A,,Overcast,20,2013-02-25 16:25:00
10:44 AM,28.4,26.6,93,30.04,5.0,NNE,11.5,-,N/A,,Overcast,20,2013-02-25 16:44:00
10:53 AM,30.0,27.0,88,30.10,6.0,NNE,12.7,-,N/A,,Overcast,30,2013-02-25 16:53:00
11:38 AM,30.2,26.6,86,30.02,8.0,NE,12.7,-,N/A,,Mostly Cloudy,40,2013-02-25 17:38:00
11:53 AM,30.9,27.0,85,30.08,9.0,NNE,13.8,-,N/A,,Mostly Cloudy,30,2013-02-25 17:53:00
12:53 PM,33.1,28.0,82,30.04,7.0,NE,15.0,-,N/A,,Overcast,40,2013-02-25 18:53:00
1:08 PM,33.8,28.4,81,29.97,7.0,NE,15.0,-,N/A,,Overcast,40,2013-02-25 19:08:00
1:53 PM,33.1,28.0,82,30.03,6.0,NNE,11.5,-,N/A,,Haze,30,2013-02-25 19:53:00
2:53 PM,33.1,28.0,82,30.02,6.0,North,15.0,-,N/A,,Haze,10,2013-02-25 20:53:00
3:03 PM,33.8,26.6,75,29.96,6.0,North,15.0,-,N/A,,Haze,10,2013-02-25 21:03:00
3:53 PM,32.0,27.0,82,30.01,10.0,NNE,15.0,-,N/A,,Mostly Cloudy,30,2013-02-25 21:53:00
4:05 PM,32.0,26.6,80,29.95,10.0,NNE,10.4,-,N/A,,Partly Cloudy,20,2013-02-25 22:05:00
4:32 PM,32.0,26.6,80,29.94,10.0,NE,11.5,-,N/A,,Mostly Cloudy,40,2013-02-25 22:32:00
4:53 PM,30.9,27.0,85,30.00,8.0,NE,10.4,-,N/A,,Mostly Cloudy,40,2013-02-25 22:53:00
5:15 PM,30.2,26.6,86,29.93,7.0,NE,12.7,-,N/A,,Partly Cloudy,50,2013-02-25 23:15:00
5:53 PM,30.0,26.1,85,29.99,7.0,NNE,10.4,-,N/A,,Clear,30,2013-02-25 23:53:00
6:53 PM,27.0,24.1,89,30.01,8.0,NE,8.1,-,N/A,,Clear,40,2013-02-26 00:53:00
7:53 PM,26.1,23.0,88,29.99,7.0,NE,8.1,-,N/A,,Clear,40,2013-02-26 01:53:00
8:53 PM,25.0,21.9,88,29.96,6.0,North,9.2,-,N/A,,Clear,360,2013-02-26 02:53:00
9:53 PM,21.9,19.9,92,29.97,6.0,North,6.9,-,N/A,,Clear,360,2013-02-26 03:53:00
10:53 PM,21.0,19.0,92,29.96,5.0,North,6.9,-,N/A,,Clear,350,2013-02-26 04:53:00
11:53 PM,18.0,17.1,96,29.98,5.0,Calm,Calm,-,N/A,,Clear,0,2013-02-26 05:53:00